TimeCDT,TemperatureF,Dew PointF,Humidity,Sea Level PressureIn,VisibilityMPH,Wind Direction,Wind SpeedMPH,Gust SpeedMPH,PrecipitationIn,Events,Conditions,WindDirDegrees,DateUTC
12:53 AM,52.0,45.0,77,29.91,10.0,NE,5.8,-,N/A,,Clear,50,2013-04-14 05:53:00
1:53 AM,48.9,45.0,86,29.89,10.0,NE,4.6,-,N/A,,Clear,40,2013-04-14 06:53:00
2:53 AM,51.1,44.1,77,29.86,10.0,NNE,5.8,-,N/A,,Clear,30,2013-04-14 07:53:00
3:53 AM,52.0,44.1,74,29.86,10.0,East,4.6,-,N/A,,Clear,100,2013-04-14 08:53:00
4:53 AM,50.0,45.0,83,29.85,10.0,NE,4.6,-,N/A,,Clear,50,2013-04-14 09:53:00
5:53 AM,48.0,45.0,89,29.86,10.0,NE,3.5,-,N/A,,Clear,50,2013-04-14 10:53:00
6:53 AM,48.9,45.0,86,29.85,10.0,ENE,4.6,-,N/A,,Clear,60,2013-04-14 11:53:00
7:53 AM,53.1,48.0,83,29.84,10.0,NE,4.6,-,N/A,,Clear,50,2013-04-14 12:53:00
8:48 AM,57.2,48.2,72,29.83,10.0,SSW,3.5,-,N/A,,Partly Cloudy,210,2013-04-14 13:48:00
8:53 AM,57.9,48.9,72,29.83,10.0,SSW,3.5,-,N/A,,Clear,200,2013-04-14 13:53:00
9:53 AM,62.1,51.1,67,29.81,10.0,South,5.8,-,N/A,,Clear,180,2013-04-14 14:53:00
10:53 AM,66.0,51.1,59,29.81,10.0,South,13.8,-,N/A,,Clear,170,2013-04-14 15:53:00
11:53 AM,69.1,53.1,57,29.78,10.0,SSE,20.7,28.8,N/A,,Clear,160,2013-04-14 16:53:00
12:53 PM,71.6,55.4,57,29.78,10.0,South,19.6,26.5,N/A,,Clear,180,2013-04-14 17:53:00
1:53 PM,72.0,57.9,61,29.76,10.0,South,18.4,25.3,N/A,,Partly Cloudy,180,2013-04-14 18:53:00
2:53 PM,71.6,57.2,60,29.73,10.0,SSE,23.0,26.5,N/A,,Overcast,160,2013-04-14 19:53:00
3:53 PM,71.1,57.0,61,29.73,10.0,SSE,18.4,26.5,N/A,,Overcast,160,2013-04-14 20:53:00
4:53 PM,69.1,57.0,65,29.71,10.0,South,17.3,25.3,N/A,,Overcast,170,2013-04-14 21:53:00
5:53 PM,69.1,57.0,65,29.71,10.0,SSE,18.4,25.3,N/A,,Overcast,150,2013-04-14 22:53:00
6:53 PM,68.0,55.9,65,29.73,10.0,SSE,13.8,-,N/A,,Overcast,160,2013-04-14 23:53:00
7:53 PM,66.0,55.9,70,29.73,10.0,SSE,13.8,-,N/A,,Overcast,160,2013-04-15 00:53:00
8:53 PM,64.0,54.0,70,29.75,10.0,SSE,11.5,23.0,N/A,,Overcast,160,2013-04-15 01:53:00
9:53 PM,62.1,54.0,75,29.78,10.0,SSE,13.8,-,N/A,,Clear,160,2013-04-15 02:53:00
10:53 PM,61.0,54.0,78,29.79,10.0,SSE,9.2,-,N/A,,Mostly Cloudy,150,2013-04-15 03:53:00
11:53 PM,61.0,54.0,78,29.81,10.0,SSE,8.1,-,N/A,,Overcast,160,2013-04-15 04:53:00